EKRAN 2 DEB, 29014

Orbit data source: Space-Track

EKRAN 2 DEB, 29014 is space debris in GEO originally from a launch on Tue, 20 Sep 1977 UTC launched from the Tyuratam Missile And Space Complex (TTMTR). Debris objects in space refer to the collection of defunct objects orbiting the Earth. Examples of debris include non-operational satellites, rocket bodies, and fragments generated from explosions, collisions, or faulty payload assembly.

Loading next visibility...
Identifier
29014, 1977-092K
Orbit
GEO
Country
Flag of CISCIS
Related business
Manufacturer
Unknown
Mission
Spacecraft
Bus & Motor
Unknown
Mass
Unknown
Launch date (UTC)
1977-09-20 (48 years ago)
Launch vehicle
Unknown
Launch site
Tyuratam Missile And Space Complex (TTMTR)
Object type
Payload
Rocket body
Debris
Shape & HBR
Unknown shape, 1.1 m
Radar Cross Section
Medium (>0.1 m² and <1 m²)

Expand to show TLE details & history
Last TLE update: 18 hours ago

TLE from 18 hours ago
0 EKRAN 2 DEB
1 29014U 77092K   26023.33788844  .00000029  00000-0  00000-0 0  9990
2 29014   4.5047 276.2219 0020680 345.1599 225.7083  1.00107761 45828
Epoch: 2026-01-23T08:06Z
TLE epoch observation values (Epoch: 2026-01-23T08:06:33.561Z)
Latitude
-2.28226°
Longitude
-117.45463°
Altitude
35,893.792 km
Speed
3.069 km/s
True Right ascension
08h 27m 27s
True Declination
-2° 16' 48"
Sunlit
Object was in daylight at epoch
Visualization orbit readout
Latitude
Unknown
Longitude
Unknown
Altitude
Unknown
Speed
Unknown
Apparent Right ascension
Unknown
Apparent Declination
Unknown
Sunlit
N/A
Visualization observer readout
Local Sidereal Time
02:55:34
Azimuth
Unknown
Elevation
Unknown
Doppler factor
Unknown
Orbital elements
Apogee altitude
35,920.993 km
Perigee altitude
35,746.405 km
Semi-major axis
42,211.836 km
Eccentricity
0.00207
Inclination
4.5047°
RAAN
276.2219°
Arg. of periapsis
345.1599°
True anomaly
225.53898°
Mean anomaly
225.7083°
Eccentric anomaly
225.62361°
Mean motion
0.25026 °/min
Orbital period
1,438.5 mins
BSTAR
0
Loading maneuver chart data...
Computing Atmospheric mass density...
Loading historical data...
Loading historical data...
Loading historical data...
Loading historical data...
Loading historical data...
Loading historical data...
Loading historical data...

Documentation

Showing up to 5 results
|